Other Surface Observations
Issued by NWS Tucson, AZ

Home | Current Version | Previous Version | Text Only | Print | Product List | Glossary On
Versions: 1 2 3 4 5 6 7 8 9 10 11 12 13 14 15 16 17 18 19 20 21 22 23 24 25 26 27 28 29 30 31 32 33 34 35 36 37 38 39 40 41 42 43 44 45 46 47 48 49 50
358
SXUS55 KTWC 161115
OSOTWC

WEATHER ROUNDUP FOR SOUTHEAST ARIZONA
NATIONAL WEATHER SERVICE TUCSON AZ
415 AM MST SAT DEC 16 2017

AZZ504>506-514-161215-
LOCATION       SKY/WX    TMP DP  RH WIND       PRES   REMARKS
TUCSON         CLEAR     45  15  30 SE12      29.93F
DAVIS-MONTHAN  MOCLDY    47  14  26 S8        29.91F
CHILDRENS PARK N/A      N/A N/A  35 E4                PIMA CO DEQ
ALVERNON/22ND  N/A       51 N/A N/A SE11              PIMA CO DEQ
CHERRY/GLENN   N/A       51 N/A N/A SE5               PIMA CO DEQ
TANGERINE      N/A       38 N/A N/A NE4               PIMA CO DEQ
CONTL RANCH    N/A       46  16  29 E6                PIMA CO DEQ
GRANT/1ST      N/A       51  17  26 SE8               PIMA CO DEQ
CRAYCROFT/22ND N/A       50  17  27 SE11              PIMA CO DEQ
GOLFLINKS/KOLB N/A       49  16  27 SE9               PIMA CO DEQ
AJO/12TH       N/A       45  16  31 S4                PIMA CO DEQ
FAIRGROUNDS    N/A       48 N/A N/A SE13              PIMA CO DEQ
SAGUARO        N/A       36   6  28 N3                *SABINO CYN
SAN CARLOS     N/A       34  14  43 NW3               *SAN CARLOS
GREEN VALLEY   N/A       37  15  40 S4                PIMA CO DEQ
HORSE CAMP CYN N/A       41  16  36 E14G20            *ARAVAIPA CYN
RINCON MTNS    N/A       36 -36   3 S2                *NR MANNING CAMP
$$

AZZ509>511-161215-
LOCATION       SKY/WX    TMP DP  RH WIND       PRES   REMARKS
SAFFORD        PTCLDY    39  17  41 SE9       30.00F WCI  33
STRAY HORSE    N/A       34   7  32 N3                *
TRAIL CABIN    N/A       30  15  53 E2                *N OF GRANVILLE
BLACK HILLS    NOT AVBL
DRY LAKE       N/A       34   9  35 S7G10             *NATANES MTNS
NOON CREEK     N/A       38   7  27 SW8G11            *PINALENO MTNS
COLUMBINE      N/A       23   0  35 CALM              *PINALENO MTNS
GUTHRIE        N/A       34  18  51 E10               *SW OF GUTHRIE
$$

AZZ502-503-513-161215-
LOCATION       SKY/WX    TMP DP  RH WIND       PRES   REMARKS
NOGALES        CLEAR     32  11  41 NE3       29.94F
SELLS          N/A       41  13  32 E5                *
SASABE         N/A       27  10  48 S3                *ALTAR VLY
HOPKINS        N/A       46 -29   3 E5G11             *SANTA RITA MTNS
CARR CYN       N/A       32  -3  21 SW3               *W OF HEREFORD
$$

AZZ507-508-512-161215-
LOCATION       SKY/WX    TMP DP  RH WIND       PRES   REMARKS
SIERRA VISTA   PTCLDY    29   7  39 SW5       29.98F WCI  23
DOUGLAS        MOCLDY    17   8  67 SE3       30.00F
EMPIRE MTNS    NOT AVBL
MULESHOE RANCH N/A       42   7  23 S3                *PRESERVE
HEADQUARTERS   N/A       34  -3  19 SE3               *CHIRICAHUA MTNS
$$

.............................NOTES.............................
THIS IS AN AUTOMATED COLLECTIVE WITH MINIMAL QUALITY CONTROL.
PIMA CO DEQ SITES HAVE NONSTANDARD WIND SENSOR HEIGHTS.
PIMA CO DEQ SITES DO NOT REPORT WIND GUSTS.
* INDICATES WIND SENSORS LOCATED AT 20 FEET INSTEAD OF 33 FEET.
..............................KEY..............................
SKY/WX - SKY CONDITION/WEATHER
TMP    - TEMPERATURE IN FAHRENHEIT
DP     - DEWPOINT IN FAHRENHEIT
RH     - RELATIVE HUMIDITY IN PERCENT
WIND   - DIRECTION AND SPEED IN MILES PER HOUR (MPH)
VRB    - VARIABLE WIND DIRECTION
PRES   - MEAN SEA LEVEL PRESSURE IN INCHES OF MERCURY
         F - FALLING PRESSURE   R - RISING PRESSURE
         S - STEADY PRESSURE
VSB    - VISIBILITY IN MILES
HX     - HEAT INDEX IN FAHRENHEIT
WCI    - WIND CHILL INDEX IN FAHRENHEIT
N/A    - NOT AVAILABLE
AFB    - AIR FORCE BASE
         DAVIS-MONTHAN IS DAVIS-MONTHAN AIR FORCE BASE
CYN    - CANYON
MTNS   - MOUNTAINS
NCA    - NATIONAL CONSERVATION AREA
NR     - NEAR
VLY    - VALLEY
CONTL  - CONTINENTAL
PIMA CO DEQ - PIMA COUNTY DEPT OF ENVIRONMENTAL QUALITY



USA.gov is the U.S. government's official web portal to all federal, state and local government web resources and services.